Kirksville, MO

8:18 PM CDT on May 23, 2017 (GMT -0500)
Kirksville Regional

Weather History for KIRK - November, 2014

Change the Weather History Date:

Saturday, November 29, 2014

  Actual Average Record
Temperature  
Mean Temperature 55 °F 34 °F  
Max Temperature 66 °F 43 °F 74 °F (1933)
Min Temperature 44 °F 25 °F -2 °F (1976)
Degree Days  
Heating Degree Days 10 31  
Month to date heating degree days 861 704  
Since 1 July heating degree days 1293 1193  
Cooling Degree Days 0 0  
Month to date cooling degree days 0 0  
Year to date cooling degree days 958 939  
Growing Degree Days 4 (Base 50)    
Moisture  
Dew Point 44 °F    
Average Humidity 69    
Maximum Humidity 86    
Minimum Humidity 52    
Precipitation  
Precipitation 0.00 in 0.09 in 1.44 in (2006)
Month to date precipitation 1.43 2.64  
Year to date precipitation 43.63 37.48  
Sea Level Pressure  
Sea Level Pressure 29.64 in    
Wind  
Wind Speed 12 mph (SSW)    
Max Wind Speed 20 mph    
Max Gust Speed 27 mph    
Visibility 10 miles    
Events      
T = Trace of Precipitation, MM = Missing Value Source: NWS Daily Summary

Daily Weather History Graph

Daily Weather History Graph

Search for Another Location

Airport or City:

Trip Planner

Search our weather history database for the weather conditions in past years. The results will help you decide how hot, cold, wet, or windy it might be!

Date:

Astronomy

Nov. 29, 2014 Rise Set
Actual Time 7:11 AM CST 4:45 PM CST
Civil Twilight 6:41 AM CST 5:15 PM CST
Nautical Twilight 6:07 AM CST 5:49 PM CST
Astronomical Twilight 5:34 AM CST 6:21 PM CST
Moon 12:40 PM CST (11/29) No Moon Set
Length of Visible Light 10h 34m
Length of Day
9h 34m
First Quarter, 54% of the Moon is Illuminated
Nov 29
First Quarter
Dec 6
Full
Dec 14
Last Quarter
Dec 21
New
Dec 28
First Quarter

Hourly Weather History & Observations

Time (CST) Temp. Windchill Dew Point Humidity Pressure Visibility Wind Dir Wind Speed Gust Speed Precip Events Conditions
12:55 AM 44.1 °F 39.0 °F 37.0 °F 76% 29.72 in 10.0 mi SSW 9.2 mph - N/A   Clear
1:55 AM 44.1 °F 38.6 °F 37.9 °F 79% 29.71 in 10.0 mi SSW 10.4 mph - N/A   Clear
2:55 AM 45.0 °F 39.7 °F 39.0 °F 80% 29.70 in 10.0 mi SSW 10.4 mph - N/A   Clear
3:55 AM 48.0 °F - 42.1 °F 80% 29.69 in 10.0 mi SSW 10.4 mph - N/A   Clear
4:55 AM 46.9 °F - 43.0 °F 86% 29.68 in 10.0 mi SSW 12.7 mph - N/A   Clear
5:55 AM 46.9 °F - 43.0 °F 86% 29.68 in 10.0 mi SSW 12.7 mph - N/A   Clear
6:55 AM 48.0 °F - 45.0 °F 89% 29.67 in 10.0 mi SSW 11.5 mph - N/A   Clear
7:55 AM 48.0 °F - 45.0 °F 89% 29.68 in 10.0 mi SSW 10.4 mph - N/A   Clear
8:55 AM 50.0 °F - 46.9 °F 89% 29.68 in 10.0 mi SW 15.0 mph 23.0 mph N/A   Clear
9:55 AM 52.0 °F - 46.9 °F 83% 29.67 in 10.0 mi SW 17.3 mph - N/A   Clear
10:55 AM 55.9 °F - 48.0 °F 75% 29.65 in 10.0 mi SW 16.1 mph 25.3 mph N/A   Clear
11:55 AM 60.1 °F - 48.0 °F 64% 29.62 in 10.0 mi SW 17.3 mph 24.2 mph N/A   Clear
12:55 PM 62.1 °F - 46.9 °F 58% 29.60 in 10.0 mi SW 15.0 mph - N/A   Clear
1:55 PM 64.0 °F - 46.9 °F 54% 29.59 in 10.0 mi SW 11.5 mph 20.7 mph N/A   Clear
2:55 PM 64.9 °F - 46.9 °F 52% 29.60 in 10.0 mi SSW 16.1 mph 24.2 mph N/A   Clear
3:55 PM 62.1 °F - 46.0 °F 56% 29.60 in 10.0 mi SSW 13.8 mph 20.7 mph N/A   Clear
4:55 PM 57.9 °F - 45.0 °F 62% 29.61 in 10.0 mi SSW 9.2 mph - N/A   Clear
5:55 PM 53.1 °F - 43.0 °F 69% 29.61 in 10.0 mi South 6.9 mph - N/A   Clear
6:55 PM 52.0 °F - 43.0 °F 71% 29.62 in 10.0 mi SSW 9.2 mph - N/A   Clear
7:55 PM 54.0 °F - 44.1 °F 69% 29.61 in 10.0 mi SSW 11.5 mph - N/A   Clear
8:55 PM 54.0 °F - 43.0 °F 66% 29.62 in 10.0 mi SSW 9.2 mph - N/A   Clear
9:55 PM 54.0 °F - 43.0 °F 66% 29.62 in 10.0 mi SSW 9.2 mph - N/A   Clear
10:55 PM 55.9 °F - 43.0 °F 62% 29.62 in 10.0 mi SW 12.7 mph - N/A   Clear
11:55 PM 55.0 °F - 43.0 °F 64% 29.63 in 10.0 mi SW 12.7 mph - N/A   Clear